Theta_e
314 312 307 308 309 309 311 313 310 309 310 315 316 315 314 315 316 318 317 315 316 315 317 320 320 318 318 318 317 318 318 319 320 320 320 320 320 319 320 319 320 321 322 322 321
315 312 308 308 308 310 311 312 313 310 309 312 314 316 315 315 321 317 314 314 313 316 319 319 320 319 320 319 318 317 319 319 319 319 319 319 318 319 318 318 319 319 319 319 320
314 312 308 309 309 311 312 313 313 312 314 315 316 315 316 316 323 319 314 314 314 318 318 317 318 320 320 320 320 320 319 319 319 319 319 319 319 320 319 319 320 319 320 320 320
313 310 309 310 311 312 312 313 314 314 313 315 315 315 315 322 322 317 314 314 315 318 317 317 319 320 320 320 321 320 319 320 320 319 319 320 320 320 320 320 320 320 320 319 319
310 308 309 311 311 312 312 312 313 314 313 313 314 315 319 321 319 317 316 319 319 317 318 319 319 319 320 319 319 320 320 320 319 319 319 319 318 319 318 319 319 319 319 319 320
307 307 308 310 311 310 310 311 312 314 314 315 315 316 325 320 318 318 318 318 318 318 318 318 319 318 319 319 319 319 319 319 319 318 318 318 318 318 319 319 319 319 319 320 320
307 308 308 309 310 310 312 313 313 314 315 316 316 319 320 319 318 319 319 319 318 318 318 318 318 319 320 320 321 319 319 320 320 319 319 319 319 319 319 319 319 319 320 320 321
308 308 308 309 311 312 313 314 314 315 315 316 316 323 320 318 319 320 319 319 319 318 318 318 317 318 320 320 321 322 322 322 321 319 320 320 320 320 320 319 319 319 319 319 319
312 308 310 312 313 313 313 314 315 316 316 316 320 324 320 318 319 318 319 318 318 319 319 319 319 320 320 322 323 323 324 323 322 322 321 321 322 321 321 321 321 320 321 320 320
311 311 310 313 313 314 314 314 316 317 319 321 320 321 319 318 317 318 319 318 319 320 321 321 320 320 322 323 323 323 322 321 322 322 322 322 322 322 322 321 322 322 321 321 321
307 313 312 313 313 315 318 320 322 325 323 322 320 319 319 317 318 318 317 318 320 321 323 320 319 322 321 321 320 321 322 322 322 322 322 322 322 322 322 322 322 322 322 322 322
303 314 312 313 313 314 317 321 321 321 324 321 319 320 318 318 320 318 318 321 320 322 320 319 319 320 319 319 320 321 322 323 322 321 322 323 324 324 324 323 323 322 322 322 322
301 310 313 312 313 316 319 318 319 321 324 322 319 320 319 318 318 318 318 319 319 319 319 319 320 319 318 319 320 322 322 322 322 322 323 325 324 323 322 321 321 321 321 321 320
302 304 315 313 315 319 321 318 319 321 331 322 319 320 319 319 319 317 317 318 318 319 318 319 319 317 318 320 321 323 321 321 321 323 325 324 326 324 322 321 320 320 320 319 319
302 303 315 316 319 320 319 319 320 323 339 319 318 318 319 320 319 319 317 319 319 318 318 320 320 319 319 321 320 322 321 321 322 324 325 325 325 323 320 319 320 320 320 319 320
302 305 314 319 320 319 318 320 323 332 330 318 319 319 320 320 320 319 319 319 319 319 320 321 320 318 319 318 320 321 322 323 323 324 326 324 322 322 321 319 319 318 318 319 320
302 309 315 318 321 318 318 322 331 327 320 321 320 319 320 321 320 320 320 321 322 322 323 322 321 319 319 321 320 321 323 326 324 327 332 324 324 323 322 319 319 318 318 318 319
303 314 317 318 318 319 321 325 329 321 318 319 319 319 321 320 320 320 321 323 322 321 323 323 324 321 318 319 319 320 323 325 331 325 324 322 322 322 321 320 319 318 318 319 319
307 319 321 319 318 318 322 324 324 320 318 319 319 321 320 320 320 320 321 322 321 320 323 324 322 320 320 319 319 321 322 323 326 324 325 323 322 324 322 320 319 318 319 320 320
312 319 321 317 318 319 322 322 320 320 319 318 320 320 321 320 320 320 320 320 320 319 320 322 325 321 319 319 320 321 321 324 327 330 327 321 322 322 323 322 321 319 320 320 321
315 318 321 314 316 321 323 321 317 317 317 319 321 321 320 321 320 320 320 319 319 320 320 320 323 323 322 322 320 322 323 323 327 326 328 327 322 322 321 321 322 322 322 321 321
317 317 317 313 321 320 318 319 312 315 317 320 320 320 321 321 321 321 320 320 319 319 320 320 322 324 322 320 319 319 321 323 328 328 326 327 327 320 321 321 321 320 320 321 322
315 317 316 315 321 321 316 316 316 316 317 319 320 319 319 321 322 322 322 320 318 319 320 321 322 326 323 321 322 322 322 322 323 325 327 328 323 318 318 320 320 322 320 320 321
317 315 317 315 317 319 319 318 317 316 316 317 319 318 319 321 321 322 322 319 317 318 319 317 321 324 327 324 321 321 321 320 324 330 329 324 322 320 319 320 321 321 320 319 318
316 316 318 313 315 317 317 318 319 318 317 318 319 318 318 320 321 321 320 318 318 317 318 322 325 323 322 321 321 321 320 319 321 321 325 320 319 319 319 321 322 320 319 318 318
313 313 314 313 314 316 316 319 319 317 317 318 319 317 317 319 319 321 320 320 320 318 318 319 323 322 325 321 319 320 319 320 320 318 317 318 319 319 320 319 319 320 318 318 318
308 309 312 313 314 316 317 317 317 315 315 315 315 315 316 315 315 315 315 316 316 317 319 322 322 323 322 321 321 324 319 321 318 318 317 319 320 319 319 318 318 318 318 316 318
Wind_Speed
14 10 6 6 7 8 9 9 8 8 9 7 6 6 5 3 2 2 12 5 5 4 7 8 5 4 7 4 9 8 10 13 14 6 8 2 4 8 2 11 15 17 17 17 20
15 11 6 5 6 6 8 7 7 6 6 6 5 1 3 4 1 12 4 5 6 6 9 7 2 5 8 7 4 9 11 14 11 11 9 10 9 10 9 12 15 15 17 19 15
16 10 5 4 4 5 6 6 6 5 5 5 4 1 8 6 6 12 5 6 7 6 6 6 9 9 10 4 5 7 11 15 8 7 9 13 15 15 14 15 13 13 13 13 15
19 8 4 4 4 5 5 6 5 4 4 5 6 2 6 6 3 7 4 6 6 7 9 6 4 9 7 6 2 11 14 9 13 11 12 15 16 18 18 17 15 15 17 15 13
20 9 4 4 4 4 5 6 5 4 3 4 5 5 3 5 10 3 3 3 6 5 6 8 7 9 8 6 8 15 12 9 13 14 15 16 18 20 19 17 15 14 18 16 13
20 11 5 3 3 5 6 7 6 3 2 3 4 7 9 8 3 2 1 5 5 8 5 8 7 8 11 10 9 13 11 15 16 16 12 13 16 16 17 11 11 11 15 17 15
17 11 7 5 5 7 8 8 4 3 2 3 4 7 6 6 0 1 2 3 3 5 9 9 9 10 11 13 5 12 17 17 17 10 9 11 16 24 16 3 11 12 13 14 15
18 11 8 7 8 10 10 4 1 3 3 4 6 8 3 3 4 6 3 8 4 6 7 9 12 12 11 11 16 16 16 12 8 7 14 7 16 16 5 8 11 11 10 14 17
21 12 8 7 10 11 7 3 1 2 3 3 7 11 5 3 4 7 5 9 8 10 9 8 11 6 12 14 13 13 11 10 15 10 7 13 19 18 11 12 16 17 17 16 17
30 13 8 7 9 12 7 2 4 4 5 8 10 8 4 10 7 6 4 6 10 10 14 14 7 11 15 10 11 16 19 18 18 16 17 20 23 19 20 20 21 21 18 16 18
31 15 8 6 7 10 8 5 6 7 15 7 6 4 6 9 3 4 8 8 11 12 14 8 9 11 14 11 14 15 18 20 20 18 17 20 21 20 18 20 20 21 19 17 19
31 18 9 5 5 8 11 8 7 7 8 6 2 5 4 4 5 5 7 6 10 12 12 13 10 6 7 12 15 16 19 20 17 13 15 21 23 21 21 19 20 20 20 19 18
31 22 9 7 7 7 5 7 9 5 7 9 3 6 2 6 6 5 8 9 11 12 11 10 13 8 11 15 17 15 16 15 18 18 21 25 21 22 5 8 12 13 14 15 18
31 24 8 5 5 7 2 9 9 3 5 12 7 4 6 9 6 3 4 9 11 11 11 9 6 13 12 14 8 15 15 16 18 17 15 16 19 16 12 8 11 12 11 15 13
35 22 8 7 11 7 8 9 3 4 4 5 5 3 7 6 7 7 1 7 10 12 8 14 14 12 12 9 10 16 16 19 21 19 19 22 12 11 8 12 8 8 9 8 10
37 18 5 5 8 4 9 3 5 7 2 3 1 4 8 9 4 5 7 9 9 12 14 14 7 6 8 13 13 16 18 20 25 18 15 13 5 11 11 11 10 8 9 8 10
38 10 3 5 8 9 6 7 7 5 4 2 3 9 13 11 8 6 9 10 6 7 10 16 5 2 5 11 11 15 17 12 12 4 12 6 14 15 13 6 10 13 12 11 12
30 6 4 3 6 5 8 8 9 3 7 7 9 14 14 6 5 7 13 11 7 7 12 9 12 4 1 14 16 15 9 6 8 13 20 27 18 18 13 11 5 10 11 12 13
22 1 8 4 5 5 8 7 6 9 5 9 14 11 7 6 10 12 10 12 5 4 6 10 7 23 19 6 6 6 10 9 16 20 17 17 19 18 11 11 5 7 9 12 11
17 9 3 6 4 8 9 12 7 0 7 9 12 6 10 11 10 9 11 1 4 3 6 9 18 14 5 8 19 13 9 10 5 7 13 15 22 10 13 17 16 6 8 8 15
8 5 6 6 5 7 9 8 9 4 5 7 10 14 15 13 10 12 7 6 3 7 8 13 14 16 18 17 15 7 11 6 7 10 14 16 10 9 19 14 14 19 15 10 17
8 6 5 10 8 2 6 6 3 9 5 10 8 13 13 12 13 12 12 6 0 9 11 16 9 15 20 23 14 10 15 2 3 10 9 14 21 24 7 11 14 15 17 20 22
7 7 0 9 6 4 8 12 9 10 9 5 9 9 10 11 8 10 10 5 8 13 4 10 6 12 12 5 7 10 12 11 15 12 19 16 16 17 20 16 19 14 14 20 21
5 5 1 1 1 5 10 11 6 6 10 11 10 12 13 15 14 12 14 9 8 10 5 4 14 18 17 19 20 22 23 21 17 8 17 22 31 26 24 22 20 18 15 18 17
4 4 4 5 7 11 11 12 16 13 7 7 8 12 11 15 16 18 20 14 17 22 21 13 18 21 24 24 25 27 26 27 25 26 23 26 28 23 19 19 15 16 18 14 14
5 5 7 13 15 13 9 11 13 12 11 13 13 16 16 17 19 21 23 21 20 19 20 11 17 18 25 23 25 29 26 28 28 27 26 26 22 18 14 12 12 17 14 17 20
8 10 6 8 12 10 12 12 10 13 14 10 14 15 17 19 19 21 21 22 23 23 22 17 14 6 17 21 22 19 24 12 13 12 15 16 18 16 20 14 17 16 17 19 16
Wind_Direction
3 2 31 35 33 30 31 32 35 34 41 53 57 60 87 101 183 194 48 36 4 333 300 272 238 267 246 247 265 269 265 259 272 243 269 353 278 288 211 285 289 279 277 290 308
1 359 28 35 38 34 31 29 30 30 37 37 30 303 246 293 295 69 58 20 357 357 332 333 320 248 241 255 244 259 273 280 26 346 313 312 295 283 287 264 264 271 271 266 271
4 0 18 45 39 35 28 24 23 26 31 16 8 349 217 265 256 67 26 10 357 328 309 297 272 274 268 245 235 278 266 319 314 300 309 293 284 276 264 267 263 275 288 306 295
8 8 33 57 50 27 18 12 10 9 11 360 353 355 197 247 38 60 354 352 351 312 310 302 288 258 272 263 180 278 276 281 290 304 285 278 286 282 274 272 283 283 282 283 280
15 27 56 57 40 13 356 349 343 343 348 346 342 319 268 125 79 99 355 325 274 311 352 331 337 321 281 322 290 260 271 299 286 283 277 282 274 277 277 273 268 260 268 270 269
26 32 43 41 17 347 332 329 320 307 315 326 320 294 244 78 93 101 324 264 8 351 349 350 344 346 284 295 277 320 289 285 279 276 281 276 278 276 270 260 250 255 263 270 268
27 27 21 9 1 342 330 320 290 245 276 314 311 297 40 66 215 291 248 327 341 339 327 352 325 298 323 283 334 284 281 273 261 249 274 286 281 253 262 312 271 252 255 264 275
14 16 10 359 354 348 341 340 244 205 247 295 278 292 76 75 317 248 285 267 236 291 299 319 316 288 268 311 273 247 262 278 148 212 252 251 275 291 181 241 256 252 264 269 272
11 4 360 355 348 351 354 17 103 186 271 269 270 233 93 192 273 328 279 299 319 277 265 274 255 288 287 253 276 201 271 289 300 291 283 258 277 292 280 276 268 263 263 266 262
9 360 350 350 350 351 353 312 239 243 256 248 264 253 140 355 337 304 291 288 293 301 276 216 274 267 241 259 317 322 308 300 298 299 300 287 279 272 276 275 272 270 268 255 265
6 354 349 342 346 357 343 253 216 204 212 320 21 336 11 341 242 343 347 300 261 265 264 313 275 303 350 322 307 294 283 284 287 289 295 286 286 284 276 266 265 268 264 263 263
4 356 342 312 328 333 310 10 15 331 287 196 282 263 251 331 272 25 332 287 318 296 304 285 277 20 321 293 285 280 280 279 289 302 309 293 286 287 273 266 264 267 272 265 267
359 354 338 315 278 275 318 10 329 306 255 163 241 277 330 272 314 322 325 322 312 296 314 306 295 2 292 291 284 290 293 310 316 306 285 273 273 273 248 258 271 247 265 277 275
356 347 324 325 272 335 233 337 318 277 257 149 199 142 258 323 241 251 295 319 295 304 329 277 343 309 296 294 306 298 335 313 297 294 290 318 291 282 260 273 265 283 276 253 272
351 340 315 282 312 306 342 331 331 218 263 125 138 67 267 271 320 138 247 296 303 320 290 308 306 304 297 316 319 292 309 297 279 273 278 272 252 281 305 286 296 253 239 293 281
349 336 308 233 248 306 319 311 241 232 198 154 174 286 301 317 272 285 276 254 265 289 271 265 296 296 295 312 273 275 288 296 275 252 248 300 309 299 318 343 319 291 267 278 291
347 330 263 292 314 321 303 244 249 256 119 92 312 313 311 299 287 293 307 294 286 311 324 313 284 72 256 297 307 314 309 312 316 180 254 201 296 308 331 324 312 314 282 245 272
348 323 251 265 310 302 261 259 273 60 315 6 303 303 281 355 295 287 301 279 181 269 299 313 316 182 354 288 306 305 307 280 311 308 312 314 294 288 304 318 272 270 282 299 273
355 268 242 325 302 283 273 262 308 356 11 318 311 269 261 199 257 300 271 289 303 296 281 313 281 321 295 304 293 306 278 293 281 285 279 275 275 277 37 279 299 280 256 259 284
335 294 207 324 295 267 259 261 295 34 309 293 283 280 291 314 303 292 307 275 256 238 288 292 299 299 289 262 269 246 289 297 247 282 302 303 309 322 346 334 322 295 262 308 299
297 283 100 325 268 243 249 320 335 355 301 278 287 289 290 297 292 294 279 288 253 296 292 290 273 276 285 276 297 246 238 223 295 274 289 294 285 348 331 318 359 341 342 317 330
302 289 27 334 256 214 290 14 21 290 235 254 280 275 279 295 288 280 273 258 288 316 292 291 293 288 283 282 271 268 275 245 206 279 263 286 282 285 312 297 318 318 309 315 318
304 290 218 317 287 284 334 293 248 280 277 271 273 277 291 284 286 271 272 302 290 296 299 351 271 302 295 186 162 237 232 237 279 282 261 280 277 288 295 297 299 307 302 294 308
288 302 222 147 54 325 325 292 281 201 282 271 274 289 278 273 258 260 254 266 261 246 255 268 264 258 264 276 294 289 279 274 267 227 259 258 279 289 296 296 312 303 307 312 313
269 356 22 302 313 327 290 286 289 284 209 262 279 256 287 290 282 280 281 267 289 289 273 234 254 264 273 280 283 286 290 283 272 265 264 279 277 290 299 292 311 295 299 304 303
317 343 345 292 282 280 264 270 293 293 295 274 284 286 293 287 290 287 286 290 293 282 277 228 254 277 276 290 290 277 273 269 272 273 270 273 287 283 287 293 270 302 294 299 306
354 302 270 291 279 268 277 295 296 307 293 279 288 289 285 292 302 296 291 284 273 274 274 262 257 262 269 282 297 288 275 286 312 299 287 273 285 306 296 315 315 311 286 301 317